This is the latest recevied weather packets stored in our database for station/object EB1BCG-1. If no packets are shown the sender has not sent any weather packets the latest 1 day(s).
| Time | Temp. | Humidity | Pressure | Rain* | Wind** | Luminosity | Snow |
|---|---|---|---|---|---|---|---|
| 1777887428 | 15° C | 68% | 1011.5 hPa | 0.51 mm | 0 m/s | - | - |
| 1777886824 | 15.56° C | 72% | 1011.4 hPa | 0.51 mm | 0 m/s | - | - |
| 1777886234 | 13.89° C | 72% | 1011.7 hPa | 0 mm | 0 m/s | - | - |
| 1777885021 | 13.89° C | 72% | 1011.7 hPa | 0 mm | 0 m/s | - | - |
| 1777883808 | 12.78° C | 84% | 1011.7 hPa | 0 mm | 0 m/s | - | - |
| 1777883200 | 12.22° C | 90% | 1011.6 hPa | 0 mm | 0 m/s | - | - |
| 1777882592 | 11.11° C | 95% | 1011.9 hPa | 0 mm | 0 m/s | - | - |
| 1777881988 | 11.11° C | 95% | 1011.9 hPa | 0 mm | 0 m/s | - | - |
| 1777881377 | 10° C | 98% | 1011.8 hPa | 0 mm | 0 m/s | - | - |
| 1777880770 | 10° C | 99% | 1011.9 hPa | 0 mm | 0 m/s | - | - |
| 1777879556 | 9.44° C | 99% | 1011.8 hPa | 0 mm | 0 m/s | - | - |
| 1777878949 | 10° C | 99% | 1011.9 hPa | 0 mm | 0 m/s | - | - |
| 1777877737 | 10° C | 99% | 1012 hPa | 0 mm | 0 m/s | - | - |
| 1777877129 | 9.44° C | 99% | 1011.8 hPa | 0 mm | 0 m/s | - | - |
| 1777875916 | 9.44° C | 99% | 1012 hPa | 0 mm | 0 m/s | - | - |
| 1777875308 | 8.89° C | 99% | 1011.9 hPa | 0 mm | 0 m/s | - | - |
| 1777874698 | 8.89° C | 99% | 1011.9 hPa | 0 mm | 0 m/s | - | - |
| 1777874091 | 8.33° C | 99% | 1011.7 hPa | 0 mm | 0 m/s | - | - |
| 1777873487 | 7.78° C | 99% | 1011.7 hPa | 0 mm | 0 m/s | - | - |
| 1777872877 | 7.78° C | 99% | 1011.8 hPa | 0 mm | 0 m/s | - | - |
| 1777872270 | 7.78° C | 99% | 1011.6 hPa | 0 mm | 0 m/s | - | - |
| 1777871663 | 7.78° C | 99% | 1011.4 hPa | 0 mm | 0 m/s | - | - |
| 1777871056 | 7.78° C | 99% | 1011.5 hPa | 0 mm | 0 m/s | - | - |
| 1777870448 | 7.78° C | 99% | 1011.5 hPa | 0 mm | 0 m/s | - | - |
| 1777869841 | 7.78° C | 99% | 1011.5 hPa | 0 mm | 0 m/s | - | - |
* Rain latest hour (hover to see other rain measurements)
** Current wind speed in m/s (hover to see current wind gust speed)